Flag for U.S.A. Weather past 2 weeks in Atlanta, Georgia, U.S.A.

Now
69 °F

Light rain. Fog.


Feels Like: 69 °F
Forecast: 70 / 83 °F
Wind: 7 mph from Southwest

Location: Fulton County Airport-Brown Field

Current Time: Jul 4, 2015 at 11:47:20 AM

Latest Report: Jul 4, 2015 at 10:53 AM


Visibility: 3 mi

Pressure: 30.10 "Hg

Humidity: 93%

Dew point: 67 °F

Location of AtlantaLocation

Historic Weather in Atlanta — Graph

°F

Atlanta temperature yesterday

Maximum temperature yesterday: 79 °F (at 1:53 PM)
Minimum temperature yesterday: 71 °F (at 9:53 AM)
Average temperature yesterday: 76 °F

Past Weeks' High & Low Weather Summary

 TemperatureHumidityPressure
High95 °F (Jun 23, 3:53 PM)93% (Jul 1, 9:53 PM)30.12 "Hg (Jul 1, 9:53 PM)
Low61 °F (Jun 29, 5:53 AM)37% (Jun 23, 4:53 PM)29.82 "Hg (Jun 27, 4:53 PM)
Average79 °F70%30.00 "Hg
* Reported Jun 19 9:53 AM — Jul 4 9:53 AM, Atlanta, Weather by CustomWeather, © 2015

Note: Actual official high and low records may vary slightly from our data, if they occured in-between our weather recording intervals... More about our weather records

Advertising

Atlanta weather history for previous 24 hours

 ConditionsComfort  
Time TempWeatherWind HumidityBarometerVisibility
9:53 AM
Sat, Jul 4
69 °FLight rain. Fog.6 mph93%30.08 "Hg5 mi
8:53 AM68 °FLight rain. Fog.6 mph93%30.06 "Hg5 mi
8:04 AM68 °FThundershowers. Fog.7 mph93%30.08 "Hg5 mi
7:53 AM68 °FLight rain. Partly sunny.7 mph93%30.05 "Hg10 mi
6:53 AM68 °FPassing clouds.6 mph93%30.03 "Hg10 mi
5:53 AM68 °FOvercast.No wind93%29.99 "Hg10 mi
4:53 AM69 °FLight rain. Passing clouds.5 mph90%30.01 "Hg10 mi
3:53 AM71 °FLight rain. Passing clouds.9 mph87%30.03 "Hg10 mi
2:53 AM73 °FLight rain. Passing clouds.8 mph79%29.99 "Hg10 mi
1:53 AM73 °FPassing clouds.5 mph90%29.98 "Hg10 mi
12:53 AM74 °FPassing clouds.5 mph88%30.00 "Hg10 mi
11:53 PM
Fri, Jul 3
75 °FPassing clouds.No wind85%30.00 "Hg10 mi
10:53 PM75 °FClear.7 mph85%30.00 "Hg10 mi
9:53 PM75 °FPassing clouds.3 mph85%29.97 "Hg10 mi
8:53 PM76 °FSunny.6 mph80%29.96 "Hg10 mi
7:53 PM78 °FSunny.7 mph71%29.96 "Hg10 mi
6:53 PM79 °FSunny.8 mph72%29.96 "Hg10 mi
5:53 PM78 °FSunny.7 mph71%29.97 "Hg10 mi
4:53 PM78 °FPassing clouds.7 mph71%29.98 "Hg10 mi
3:53 PM78 °FSunny.7 mph74%30.00 "Hg10 mi
2:53 PM77 °FLight rain. Broken clouds.9 mph77%30.01 "Hg10 mi
1:53 PM79 °FSunny.8 mph69%29.99 "Hg10 mi
12:53 PM76 °FSunny.7 mph82%30.00 "Hg10 mi
11:53 AM72 °FLight rain. Mostly cloudy.10 mph84%30.03 "Hg10 mi
Weather by CustomWeather, © 2015

See weather overviewHow to use our weather pages